EW1549 Weather Reports


time (UTC)temp
F
wind
direction
speed
knots
gust
knots
rain 1hr
in
rain 24hr
in
rain mn
in
humidity
%
barometer
mb
20260901054547 0 234 7.0 13.0 0.00 0.00 0.00 1017.0
20260901053051 0 236 5.2 8.7 0.00 0.00 0.00 1017.0
20260901051539 0 230 3.5 7.0 0.00 0.00 0.00 1016.9
20260901050034 0 226 2.6 7.0 0.00 0.00 0.00 1016.9
20260901044535 0 235 4.3 7.0 0.00 0.00 0.00 1016.9
20260901043026 0 233 4.3 7.0 0.00 0.00 0.00 1017.1
20260901041520 0 253 4.3 7.0 0.00 0.00 0.00 1016.9
20260901040016 0 257 2.6 4.3 0.00 0.00 0.00 1016.9
20260901034515 0 260 1.7 5.2 0.00 0.00 0.00 1017.0
20260901033007 0 246 0.0 0.0 0.00 0.00 0.00 1017.1
20260901031504 0 68 3.5 8.7 0.00 0.00 0.00 1017.3
20260901030058 0 259 0.0 5.2 0.00 0.00 0.00 1017.6
20260901024600 0 255 2.6 6.1 0.00 0.00 0.00 1017.7
20260901023054 0 285 0.0 3.5 0.00 0.00 0.00 1017.8
20260901021550 0 256 0.0 4.3 0.00 0.00 0.00 1018.1
20260901020042 0 243 3.5 9.6 0.00 0.00 0.00 1018.0
20260901014537 0 241 4.3 7.8 0.00 0.00 0.00 1018.3
20260901013037 0 254 3.5 7.0 0.00 0.00 0.00 1018.4
20260901011532 0 253 4.3 6.1 0.00 0.00 0.00 1018.4
20260901010027 0 250 2.6 5.2 0.00 0.00 0.00 1018.6
20260901004517 0 246 2.6 4.3 0.00 0.00 0.00 1018.7
20260901003021 0 264 1.7 4.3 0.00 0.00 0.00 1018.9
20260901001508 0 264 3.5 7.8 0.00 0.00 0.00 1019.0
20260901000004 0 250 1.7 4.3 0.00 0.00 0.00 1019.0
20260831234600 0 245 0.0 0.0 0.00 0.00 0.00 1018.9
20260831233037 0 245 0.0 2.6 0.00 0.00 0.00 1019.1
20260831231532 0 230 0.0 5.2 0.00 0.00 0.00 1019.2
20260831230028 0 295 0.0 6.1 0.00 0.00 0.00 1019.3
20260831224527 0 292 3.5 6.1 0.00 0.00 0.00 1019.3
20260831223024 0 248 0.0 4.3 0.00 0.00 0.00 1019.4
20260831221528 0 237 0.0 4.3 0.00 0.00 0.00 1019.6
20260831220015 0 310 2.6 3.5 0.00 0.00 0.00 1019.5
20260831214509 0 287 0.0 3.5 0.00 0.00 0.00 1019.5
20260831213009 0 302 1.7 5.2 0.00 0.00 0.00 1019.3
20260831211502 0 170 0.0 4.3 0.00 0.00 0.00 1019.1
20260831210057 0 46 0.0 3.5 0.00 0.00 0.00 1018.8
20260831204553 0 13 0.9 4.3 0.00 0.00 0.00 1018.4
20260831203049 0 28 6.1 11.3 0.00 0.00 0.00 1018.0
20260831201544 0 63 3.5 9.6 0.00 0.00 0.00 1017.8
20260831200042 0 41 3.5 10.4 0.00 0.00 0.00 1017.6
20260831194535 0 69 3.5 10.4 0.00 0.00 0.00 1017.4
20260831193039 0 143 4.3 10.4 0.00 0.00 0.00 1017.2
20260831191526 0 70 4.3 14.8 0.00 0.00 0.00 1017.1
20260831190038 0 76 5.2 14.8 0.00 0.00 0.00 1017.2
20260831184516 0 110 7.0 14.8 0.00 0.00 0.00 1017.1
20260831183015 0 73 7.8 14.8 0.00 0.00 0.00 1016.8
20260831181508 0 78 7.0 17.4 0.00 0.00 0.00 1016.8
20260831180104 0 52 8.7 16.5 0.00 0.00 0.00 1017.0
20260831174633 0 75 5.2 15.6 0.00 0.00 0.00 1016.9
20260831173055 0 66 8.7 18.2 0.00 0.00 0.00 1016.7
20260831171550 0 69 7.8 20.0 0.00 0.00 0.00 1016.8
20260831170025 0 83 9.6 15.6 0.00 0.00 0.00 1016.9
20260831164522 0 77 7.0 13.9 0.00 0.00 0.00 1016.9
20260831163019 0 74 6.1 15.6 0.00 0.00 0.00 1017.0
20260831161512 0 64 7.0 17.4 0.00 0.00 0.00 1017.1
20260831160012 0 87 6.1 13.0 0.00 0.00 0.00 1017.2
20260831154614 0 56 9.6 17.4 0.00 0.00 0.00 1017.3
20260831153112 0 137 6.1 16.5 0.00 0.00 0.00 1017.5
20260831151554 0 59 12.2 18.2 0.00 0.00 0.00 1017.4
20260831150054 0 46 9.6 13.9 0.00 0.00 0.00 1017.5
20260831144546 0 50 9.6 18.2 0.00 0.00 0.00 1017.5
20260831143044 0 46 8.7 15.6 0.00 0.00 0.00 1017.6
20260831141536 0 100 7.0 18.2 0.00 0.00 0.00 1017.8
20260831140036 0 46 10.4 18.2 0.00 0.00 0.00 1017.7
20260831134527 0 36 10.4 18.2 0.00 0.00 0.00 1017.7
20260831133022 0 54 9.6 18.2 0.00 0.00 0.00 1017.8
20260831131519 0 60 11.3 20.9 0.00 0.00 0.00 1017.6
20260831130014 0 25 8.7 18.2 0.00 0.00 0.00 1017.8
20260831124510 0 21 11.3 18.2 0.00 0.00 0.00 1017.8
20260831123009 0 50 7.8 16.5 0.00 0.00 0.00 1018.0
20260831121506 0 41 7.0 16.5 0.00 0.00 0.00 1018.1
20260831120001 0 69 8.7 16.5 0.00 0.00 0.00 1018.2
20260831114558 0 41 7.8 12.2 0.00 0.00 0.00 1018.3
20260831113102 0 41 7.0 13.9 0.00 0.00 0.00 1018.3
20260831111548 0 46 6.1 13.0 0.00 0.00 0.00 1018.4
20260831110044 0 46 8.7 13.9 0.00 0.00 0.00 1018.5
20260831104550 0 51 0.9 11.3 0.00 0.00 0.00 1018.5
20260831103038 0 7 4.3 13.9 0.00 0.00 0.00 1018.4
20260831101544 0 36 7.0 13.9 0.00 0.00 0.00 1018.3
20260831100037 0 36 5.2 12.2 0.00 0.00 0.00 1018.4
20260831094540 0 4 3.5 11.3 0.00 0.00 0.00 1018.5
20260831093031 0 221 0.0 2.6 0.00 0.00 0.00 1018.4
20260831091540 0 250 1.7 3.5 0.00 0.00 0.00 1018.3
20260831090027 0 300 0.0 0.0 0.00 0.00 0.00 1018.2
20260831084606 0 300 0.0 2.6 0.00 0.00 0.00 1018.1
20260831083023 0 300 0.9 5.2 0.00 0.00 0.00 1017.9
20260831081519 0 279 0.0 0.0 0.00 0.00 0.00 1018.1
20260831080033 0 243 0.0 3.5 0.00 0.00 0.00 1018.0
20260831074521 0 263 1.7 5.2 0.00 0.00 0.00 1017.8
20260831073005 0 236 0.0 0.0 0.00 0.00 0.00 1017.6
20260831071502 0 236 1.7 4.3 0.00 0.00 0.00 1017.4
20260831070057 0 236 0.0 3.5 0.00 0.00 0.00 1017.3
20260831064556 0 236 0.0 2.6 0.00 0.00 0.00 1017.3
20260831063103 0 236 1.7 3.5 0.00 0.00 0.00 1017.3
20260831061544 0 236 0.0 3.5 0.00 0.00 0.00 1017.3
20260831060040 0 236 0.0 3.5 0.00 0.00 0.00 1017.2